sat.trackr.live / text

‹ back to catalog

STARLINK-36896

NORAD 68092 · 2026-042Z

PAYLOAD ACTIVE UNKNOWN

§ Identity

Operator
Country
US
Launch date
2026-03-04
Launch site
AFETR
Launch vehicle
Mass (kg)
RCS (m²)

Purposes: comms

External: N2YO · Heavens-Above · Gunter

§ Orbital elements

Epoch: 2026-09-19T14:42:51.734592Z

Period
93.85 min
Inclination
53.1596°
Eccentricity
0.0001427
Mean motion
15.34426949 rev/d
Perigee alt
461.6 km
Apogee alt
463.6 km
Semi-major
6,840.8 km
B*
1.1470e-3
RAAN
353.8589°
Arg perigee
90.6969°
Mean anomaly
269.4197°
Rev number
3,204

§ Raw data

STARLINK-368961 68092U 26042Z   26262.61309878  .00038610  00000+0  11470-2 0  99912 68092  53.1596 353.8589 0001427  90.6969 269.4197 15.34426949 32044

JSON: /api/v1/satellites/68092 · /tle

For live sub-satellite position, see the globe view (requires WebGL).

§ Visibility from observer

Set your observer location to see the next 7 days of passes ≥ 10°. The values pass through the URL so the page stays shareable.

No JS? Fill the form by hand. The geolocation button needs JavaScript.